Weather History for Crossville, TN

Change the Weather History Date:

Friday, September 6, 2013

  Actual Average Record
Temperature  
Mean Temperature 72 °F 71 °F  
Max Temperature 82 °F 81 °F 98 °F (1954)
Min Temperature 62 °F 61 °F 46 °F (1988)
Degree Days  
Heating Degree Days 0    
Month to date heating degree days  
Since 1 July heating degree days  
Cooling Degree Days 7    
Month to date cooling degree days  
Year to date cooling degree days  
Growing Degree Days 22 (Base 50)    
Moisture  
Dew Point 61 °F    
Average Humidity 74    
Maximum Humidity 93    
Minimum Humidity 45    
Precipitation  
Precipitation 0.01 in 0.12 in 0.83 in (2011)
Month to date precipitation 0.72  
Year to date precipitation 38.84  
Sea Level Pressure  
Sea Level Pressure 30.14 in    
Wind  
Wind Speed 2 mph (ENE)    
Max Wind Speed 8 mph    
Max Gust Speed -    
Visibility 8 miles    
Events      
T = Trace of Precipitation, MM = Missing Value Source: NWS Daily Summary

Daily Weather History Graph

Daily Weather History Graph

Search for Another Location

Airport:

Trip Planner

Search our weather history database for the weather conditions in past years. The results will help you decide how hot, cold, wet, or windy it might be!

Date:

Astronomy

Sep. 06, 2013 Rise Set
Actual Time 6:16 AM CDT 7:00 PM CDT
Civil Twilight 5:50 AM CDT 7:26 PM CDT
Nautical Twilight 5:19 AM CDT 7:56 PM CDT
Astronomical Twilight 4:48 AM CDT 8:28 PM CDT
Moon 7:23 AM CDT (9/6) 7:29 PM CDT (9/6)
Length of Visible Light 13h 36m
Length of Day
12h 44m
New Moon, 2% of the Moon is Illuminated
Sep 6
New Moon
Sep 12
First Quarter
Sep 19
Full
Sep 26
Last Quarter
Oct 4
New

Hourly Weather History & Observations

Time (CDT) Temp. Heat Index Dew Point Humidity Pressure Visibility Wind Dir Wind Speed Gust Speed Precip Events Conditions
12:53 AM 64.0 °F - 61.0 °F 90% 30.16 in 10.0 mi Calm Calm - 0.01 in   Clear
1:53 AM 62.1 °F - 59.0 °F 90% 30.16 in 6.0 mi Calm Calm - N/A   Clear
2:53 AM 62.1 °F - 60.1 °F 93% 30.15 in 5.0 mi Calm Calm - N/A   Clear
3:53 AM 62.1 °F - 60.1 °F 93% 30.15 in 6.0 mi Calm Calm - N/A   Clear
4:53 AM 62.1 °F - 59.0 °F 90% 30.15 in 6.0 mi Calm Calm - N/A   Clear
5:53 AM 62.1 °F - 59.0 °F 90% 30.16 in 6.0 mi NNE 3.5 mph - N/A   Clear
6:53 AM 62.1 °F - 60.1 °F 93% 30.17 in 4.0 mi Calm Calm - N/A   Clear
7:53 AM 66.9 °F - 62.1 °F 84% 30.17 in 10.0 mi ENE 3.5 mph - N/A   Clear
8:53 AM 72.0 °F - 63.0 °F 73% 30.18 in 10.0 mi ENE 4.6 mph - N/A   Clear
9:53 AM 75.9 °F - 61.0 °F 60% 30.19 in 10.0 mi ENE 8.1 mph - N/A   Clear
10:53 AM 77.0 °F - 60.1 °F 56% 30.19 in 10.0 mi ESE 6.9 mph - N/A   Clear
11:53 AM 79.0 °F - 60.1 °F 52% 30.18 in 10.0 mi Variable 3.5 mph - N/A   Clear
12:53 PM 81.0 °F 81.3 °F 59.0 °F 47% 30.17 in 10.0 mi Variable 6.9 mph - N/A   Clear
1:53 PM 81.0 °F 81.1 °F 57.9 °F 45% 30.14 in 10.0 mi Variable 3.5 mph - N/A   Clear
2:53 PM 82.0 °F 82.4 °F 60.1 °F 47% 30.12 in 10.0 mi Variable 5.8 mph - N/A   Clear
3:53 PM 81.0 °F 81.6 °F 60.1 °F 49% 30.11 in 10.0 mi ENE 4.6 mph - N/A   Partly Cloudy
4:53 PM 81.0 °F 81.6 °F 60.1 °F 49% 30.10 in 10.0 mi Calm Calm - N/A   Clear
5:53 PM 78.1 °F - 62.1 °F 58% 30.10 in 10.0 mi Calm Calm - N/A   Clear
6:53 PM 71.1 °F - 63.0 °F 75% 30.10 in 10.0 mi Calm Calm - N/A   Clear
7:53 PM 69.1 °F - 63.0 °F 81% 30.11 in 10.0 mi Calm Calm - N/A   Clear
8:53 PM 66.9 °F - 63.0 °F 87% 30.11 in 10.0 mi Calm Calm - N/A   Clear
9:53 PM 66.0 °F - 63.0 °F 90% 30.12 in 9.0 mi Calm Calm - N/A   Clear
10:53 PM 64.9 °F - 62.1 °F 90% 30.12 in 6.0 mi Calm Calm - N/A   Clear
11:53 PM 64.0 °F - 61.0 °F 90% 30.11 in 5.0 mi Calm Calm - N/A   Clear